Track CHINASAT 2C (ZX 2C) now! CHINASAT 2C (ZX 2C) is classified as:
1 41021U 15063A 24325.64998892 -.00000321 00000-0 00000-0 0 9991 2 41021 0.0146 262.6593 0005324 301.6451 193.2185 1.00264717 33247